Owosso, MI

7:09 PM EST on February 27, 2017 (GMT -0500)
Owosso

Weather History for KRNP - July, 2013

Change the Weather History Date:

Tuesday, July 30, 2013

  Actual Average (KFNT) Record (KFNT)
Temperature  
Mean Temperature 63 °F -  
Max Temperature 77 °F 79 °F 98 °F (1933)
Min Temperature 49 °F 58 °F 44 °F (1965)
Degree Days  
Heating Degree Days 2    
Growing Degree Days 13 (Base 50)    
Moisture  
Dew Point 56 °F    
Average Humidity 77    
Maximum Humidity 100    
Minimum Humidity 44    
Precipitation  
Precipitation 0.00 in - - ()
Sea Level Pressure  
Sea Level Pressure 30.19 in    
Wind  
Wind Speed 1 mph (SSE)    
Max Wind Speed 7 mph    
Max Gust Speed -    
Visibility 8 miles    
Events      
Averages and records for this station are not official NWS values.
T = Trace of Precipitation, MM = Missing Value Source: NWS Daily Summary

Daily Weather History Graph

Daily Weather History Graph

Search for Another Location

Airport or City:

Trip Planner

Search our weather history database for the weather conditions in past years. The results will help you decide how hot, cold, wet, or windy it might be!

Date:

Astronomy

Jul. 30, 2013 Rise Set
Actual Time 6:25 AM EDT 8:59 PM EDT
Civil Twilight 5:53 AM EDT 9:31 PM EDT
Nautical Twilight 5:12 AM EDT 10:12 PM EDT
Astronomical Twilight 4:26 AM EDT 10:58 PM EDT
Moon 12:44 AM EDT (7/30) 3:18 PM EDT (7/30)
Length of Visible Light 15h 38m
Length of Day
14h 34m
Last Quarter, 41% of the Moon is Illuminated
Jul 30
Last Quarter
Aug 6
New
Aug 14
First Quarter
Aug 20
Full
Aug 28
Last Quarter

Hourly Weather History & Observations

Time (EDT) Temp. Dew Point Humidity Pressure Visibility Wind Dir Wind Speed Gust Speed Precip Events Conditions
12:14 AM 60.3 °F 57.7 °F 91% 30.19 in 10.0 mi Calm Calm - N/A   Scattered Clouds
12:35 AM 59.5 °F 57.6 °F 93% 30.19 in 10.0 mi Calm Calm - N/A   Clear
12:55 AM 58.1 °F 56.8 °F 96% 30.20 in 10.0 mi Calm Calm - N/A   Clear
1:15 AM 57.0 °F 56.5 °F 98% 30.19 in 10.0 mi Calm Calm - N/A   Clear
1:35 AM 55.9 °F 55.8 °F 99% 30.20 in 10.0 mi Calm Calm - N/A   Clear
1:54 AM 54.9 °F 54.9 °F 100% 30.20 in 10.0 mi Calm Calm - N/A   Clear
2:15 AM 55.2 °F 55.2 °F 100% 30.20 in 5.0 mi Calm Calm - N/A   Clear
2:35 AM 54.1 °F 54.1 °F 100% 30.20 in 0.5 mi Calm Calm - N/A   Unknown
2:54 AM 53.2 °F 53.2 °F 100% 30.21 in 7.0 mi Calm Calm - N/A   Clear
3:15 AM 53.1 °F 53.1 °F 100% 30.20 in 0.8 mi Calm Calm - N/A   Unknown
3:34 AM 54.1 °F 54.1 °F 100% 30.21 in 5.0 mi Calm Calm - N/A   Clear
3:55 AM 53.6 °F 53.6 °F 100% 30.21 in 0.8 mi Calm Calm - N/A   Mist
4:15 AM 52.5 °F 52.5 °F 100% 30.20 in 1.0 mi Calm Calm - N/A   Mist
4:34 AM 51.4 °F 51.4 °F 100% 30.20 in 0.8 mi Calm Calm - N/A   Mist
4:55 AM 50.5 °F 50.5 °F 100% 30.21 in 1.8 mi Calm Calm - N/A   Mist
5:15 AM 50.7 °F 50.7 °F 100% 30.21 in 0.8 mi Calm Calm - N/A   Mist
5:34 AM 50.5 °F 50.5 °F 100% 30.21 in 1.8 mi Calm Calm - N/A   Unknown
5:55 AM 50.4 °F 50.4 °F 100% 30.22 in 3.0 mi Calm Calm - N/A   Clear
6:15 AM 50.9 °F 50.9 °F 100% 30.21 in 2.0 mi Calm Calm - N/A   Clear
6:35 AM 49.6 °F 49.6 °F 100% 30.22 in 0.2 mi Calm Calm - N/A   Unknown
6:55 AM 50.2 °F 50.2 °F 100% 30.23 in 0.5 mi Calm Calm - N/A   Unknown
7:14 AM 50.9 °F 50.9 °F 100% 30.23 in 10.0 mi Calm Calm - N/A   Clear
7:35 AM 53.2 °F 53.2 °F 100% 30.24 in 7.0 mi Calm Calm - N/A   Clear
7:55 AM 55.2 °F 55.2 °F 100% 30.24 in 7.0 mi Calm Calm - N/A   Clear
8:14 AM 57.4 °F 57.4 °F 100% 30.24 in 10.0 mi Calm Calm - N/A   Clear
8:35 AM 59.4 °F 59.4 °F 100% 30.24 in 10.0 mi Calm Calm - N/A   Clear
8:54 AM 60.8 °F 60.8 °F 100% 30.25 in 10.0 mi Calm Calm - N/A   Clear
9:15 AM 62.6 °F 62.2 °F 99% 30.24 in 10.0 mi Calm Calm - N/A   Clear
9:35 AM 64.2 °F 61.3 °F 90% 30.24 in 10.0 mi Calm Calm - N/A   Clear
9:54 AM 66.4 °F 60.3 °F 81% 30.24 in 10.0 mi SE 4.6 mph - N/A   Clear
10:15 AM 67.5 °F 59.2 °F 75% 30.24 in 10.0 mi SE 3.5 mph - N/A   Clear
10:35 AM 68.5 °F 58.8 °F 71% 30.24 in 10.0 mi SSW 3.5 mph - N/A   Clear
10:54 AM 68.5 °F 58.1 °F 69% 30.24 in 10.0 mi Calm Calm - N/A   Clear
11:15 AM 69.3 °F 57.2 °F 65% 30.23 in 10.0 mi Calm Calm - N/A   Clear
11:34 AM 70.9 °F 57.9 °F 63% 30.23 in 10.0 mi South 4.6 mph - N/A   Scattered Clouds
11:55 AM 70.7 °F 57.0 °F 62% 30.23 in 10.0 mi Calm Calm - N/A   Scattered Clouds
12:15 PM 72.0 °F 57.6 °F 60% 30.22 in 10.0 mi South 4.6 mph - N/A   Scattered Clouds
12:34 PM 72.7 °F 56.5 °F 57% 30.22 in 10.0 mi Calm Calm - N/A   Scattered Clouds
12:55 PM 72.7 °F 56.8 °F 57% 30.22 in 10.0 mi Calm Calm - N/A   Scattered Clouds
1:15 PM 74.3 °F 56.8 °F 54% 30.21 in 10.0 mi SW 4.6 mph - N/A   Scattered Clouds
1:34 PM 74.1 °F 57.2 °F 55% 30.21 in 10.0 mi South 4.6 mph - N/A   Mostly Cloudy
1:55 PM 73.9 °F 57.6 °F 56% 30.20 in 10.0 mi South 3.5 mph - N/A   Scattered Clouds
2:15 PM 76.1 °F 57.0 °F 51% 30.20 in 10.0 mi South 6.9 mph - N/A   Mostly Cloudy
2:34 PM 75.4 °F 56.5 °F 52% 30.19 in 10.0 mi Calm Calm - N/A   Scattered Clouds
2:55 PM 75.9 °F 55.8 °F 49% 30.18 in 10.0 mi SSW 4.6 mph - N/A   Scattered Clouds
3:14 PM 75.0 °F 55.9 °F 51% 30.18 in 10.0 mi Calm Calm - N/A   Mostly Cloudy
3:35 PM 77.4 °F 55.2 °F 46% 30.17 in 10.0 mi SSW 4.6 mph - N/A   Mostly Cloudy
3:55 PM 74.8 °F 54.5 °F 49% 30.17 in 10.0 mi Calm Calm - N/A   Mostly Cloudy
4:14 PM 76.8 °F 55.4 °F 47% 30.16 in 10.0 mi Calm Calm - N/A   Mostly Cloudy
4:35 PM 76.8 °F 53.8 °F 45% 30.16 in 10.0 mi Calm Calm - N/A   Mostly Cloudy
4:55 PM 75.7 °F 56.7 °F 51% 30.15 in 10.0 mi NE 4.6 mph - N/A   Mostly Cloudy
5:15 PM 75.7 °F 55.6 °F 49% 30.15 in 10.0 mi Calm Calm - N/A   Mostly Cloudy
5:35 PM 77.9 °F 54.1 °F 44% 30.14 in 10.0 mi SSE 3.5 mph - N/A   Scattered Clouds
5:54 PM 76.8 °F 54.3 °F 46% 30.14 in 10.0 mi Calm Calm - N/A   Scattered Clouds
6:15 PM 77.0 °F 54.9 °F 46% 30.14 in 10.0 mi SSE 4.6 mph - N/A   Clear
6:35 PM 77.0 °F 55.4 °F 47% 30.13 in 10.0 mi Calm Calm - N/A   Clear
6:55 PM 76.8 °F 55.8 °F 48% 30.14 in 10.0 mi SSE 3.5 mph - N/A   Clear
7:15 PM 76.3 °F 54.9 °F 47% 30.14 in 10.0 mi Calm Calm - N/A   Clear
7:34 PM 75.6 °F 55.8 °F 50% 30.14 in 10.0 mi Calm Calm - N/A   Clear
7:55 PM 75.2 °F 55.6 °F 50% 30.14 in 10.0 mi Calm Calm - N/A   Clear
8:15 PM 74.3 °F 58.1 °F 57% 30.13 in 10.0 mi SE 3.5 mph - N/A   Clear
8:34 PM 71.8 °F 59.9 °F 66% 30.13 in 10.0 mi ESE 3.5 mph - N/A   Clear
8:55 PM 70.7 °F 60.4 °F 70% 30.12 in 10.0 mi Calm Calm - N/A   Clear
9:14 PM 66.7 °F 61.5 °F 83% 30.13 in 10.0 mi Calm Calm - N/A   Clear
9:35 PM 66.0 °F 61.0 °F 84% 30.13 in 10.0 mi Calm Calm - N/A   Clear
9:55 PM 64.4 °F 60.8 °F 88% 30.13 in 10.0 mi Calm Calm - N/A   Clear
10:14 PM 64.9 °F 61.0 °F 87% 30.13 in 10.0 mi Calm Calm - N/A   Clear
10:35 PM 64.4 °F 61.3 °F 90% 30.13 in 10.0 mi Calm Calm - N/A   Clear
10:55 PM 62.8 °F 61.3 °F 95% 30.14 in 10.0 mi Calm Calm - N/A   Clear
11:15 PM 62.6 °F 61.0 °F 94% 30.14 in 10.0 mi Calm Calm - N/A   Clear
11:35 PM 61.9 °F 60.6 °F 96% 30.13 in 10.0 mi Calm Calm - N/A   Clear
11:55 PM 62.2 °F 61.0 °F 96% 30.13 in 10.0 mi Calm Calm - N/A   Clear